Torna al catalogo

HULIANWANG DIGUI-53

AttivoComunicazioniLEO
NORAD 65110·PAYLOAD·🇨🇳 China

Lanciato Aug 4, 2025 da Wenchang Space Launch Site

Loading…

Prossimi Passaggi (prossime 24 ore)

TLE

AggiornatoSource: Space-Track

Epoca: Sep 14, 2026, 14:11 UTC

1 65110U 25168E   26257.59122042 -.00000093  00000-0  67725-4 0  9996
2 65110  50.0060   5.0399 0008207 358.6084   1.4764 13.29330223 54585

Traccia HULIANWANG DIGUI-53 in tempo reale con AllMySat

Download on the App Store